Location: Bishopstone
(51.0167°N, 1.9000°W)
Time: 04:39:37
(UTC+00:00)

Cosmos 1544 - Pass Details

Date: 16 September 2019
Orbit: 475 x 491 km, 82.5° (Epoch: 23 October)

Event Time Altitude Azimuth Distance (km) Brightness Sun altitude
Rises 20:04:36 0° 203° (SSW) 2,516 6.7 -16.6°
Reaches altitude 10° 20:06:44 10° 209° (SSW) 1,644 5.8 -16.9°
Maximum altitude 20:10:13 47° 285° (WNW) 647 4.1 -17.4°
Drops below altitude 10° 20:13:44 10° 360° (N) 1,663 6.1 -17.9°
Sets 20:15:54 0° 6° (N) 2,550 7.0 -18.2°
